Location: Oberkirch
(48.5323°N, 8.0787°E)
Time: 23:23:35
(UTC+00:00)

CUBEBUG 2 - Pass Details

Date: 22 March 2026
Orbit: 548 x 627 km, 97.9° (Epoch: 13 April)

Event Time Altitude Azimuth Distance (km) Brightness Sun altitude
Rises 02:47:37 0° 5° (N) 2,916 ? -25.7°
Reaches altitude 10° 02:49:59 10° 355° (N) 2,010 ? -25.3°
Enters shadow 02:52:19 24° 329° (NNW) 1,298 ? -25.0°
